Погода в Аксакшуре

Россия / Удмуртская Республика     56°26′26″N   53°11′22″E
темп.,
°C
ветер,
м/с
пор.,
м/с
влажн.,
%
обл.,
%
осадки,
мм/ч
давл.,
гПа
погр.,
м
28 февраля, вс
вс2801:00−12всв599498 0.3 1002346
04:00−14св599498 0.4 1003286
07:00−16ссв5994100 0.1 1004318
10:00−15ссв6993100 0.1 1005378
13:00−13ссв5892100 0.0 1007443
16:00−13ссв6990100 0.1 1008525
19:00−15с5109298 0.1 1010380
22:00−19с489665 0.1 1012146
1 марта, пн
пн101:00−21с45970 0.0 101491
04:00−22с34980 0.0 101672
07:00−23с34980 0.0 101870
10:00−18с35940 0.0 1019220
13:00−14с348767 0.0 1019394
16:00−12сз238783 0.0 1020468
19:00−16зюз2397100 0.0 101821
22:00−19ююз349970 0.0 101858
2 марта, вт
вт201:00−20ююз599766 0.0 1015183
04:00−18ююз6129783 0.0 1012266
07:00−15ююз71295100 0.5 1008360
10:00−12ююз71294100 1.9 1004519
13:00−9ююз71294100 1.4 1001543
16:00−7ю71195100 2.4 999550
19:00−6ю61195100 1.3 998426
22:00−4ю4797100 2.1 997176
3 марта, ср
ср301:00−4ссз4697100 1.5 997211
04:00−11сз339792 1.5 99834
07:00−12сз239754 0.0 99821
10:00−5зсз249770 0.1 999310
13:00−3з3494100 0.1 1000403
16:00−2з3596100 1.1 1000368
19:00−4зсз4996100 0.7 1001393
22:00−6ссз61290100 0.9 1003507
4 марта, чт
чт401:00−11сз489323 0.0 1004153
04:00−14зсз349712 0.0 100672
07:00−15з349852 0.0 100755
10:00−11юз469569 0.0 1006254
13:00−8ююз71192100 0.0 1003494
16:00−6ююз91595100 0.6 999841
19:00−3юз91695100 1.6 995975
22:00−1зюз91693100 2.4 9931026